www.pogodaiklimat.ru
ПОГОДА в Хейгерстауне
Время
и дата
02:53 30.11
03:53 30.11
04:53 30.11
05:21 30.11
05:53 30.11
06:53 30.11
07:03 30.11
07:53 30.11
08:02 30.11
08:53 30.11
09:31 30.11
09:38 30.11
09:51 30.11
09:53 30.11
10:01 30.11
10:53 30.11
11:53 30.11
12:53 30.11
13:08 30.11
13:53 30.11
14:00 30.11
14:05 30.11
14:07 30.11
14:23 30.11
14:32 30.11
14:53 30.11
15:53 30.11
16:53 30.11
17:53 30.11
18:53 30.12
19:53 30.11
20:53 30.11
21:53 30.11
22:53 30.11
23:53 30.11
00:53 01.12
01:53 01.12
02:53 01.12
03:53 01.12
04:53 01.12
05:53 01.12
06:53 01.12
07:53 01.12
08:53 01.12
09:53 01.12
10:53 01.12
11:53 01.12
12:53 01.12
Ветер
(напр.,м/с)
Видим. Явления Облачность Т
(С)
Тd
(С)
f
(%)
Тe
(С)
Тes
(С)
Комфортность P
(гПа)
Po
(гПа)
Тmin
(С)
Tmax
(С)
R
(мм)
R24
(мм)
S
(см)
Ю 6 16 км ясно +7.2 +2.8 74 +3 +3 1017.9 990.9
Ю 7 16 км 10/10 1380 м +7.8 +3.3 73 +3 +3 1017.0 990.3
Ю 7 16 км 10/10 840 м +7.8 +3.9 76 +3 +3 1016.0 989.3
Ю 7 16 км слабый дождь 10/10 780 m
[Ns]
+7.2 +4.4 82 +3 +3 989.0
Ю 7
{10}
16 км 10/8 1320 m
[Ac]
+7.8 +5.0 82 +3 +3 1015.0 988.3
Ю 8 13 км слабый дождь 10/10 930 m
[Ns]
+7.8 +5.6 86 +3 +3 1013.9 987.0 +7.2 +8.3
Ю 8
{10}
13 км слабый дождь 10/10 270 m
[Ns]
+7.8 +6.1 89 +3 +3 987.0
Ю 8
{11}
8 км слабый дождь, дымка 10/10 240 m
[Ns]
+7.8 +6.1 89 +3 +3 1013.0 986.3
Ю 9
{11}
8 км слабый дождь, дымка 10/10 210 m
[Ns]
+7.8 +6.7 93 +3 +3 986.0
Ю 9
{14}
8 км слабый дождь, дымка 10/10 180 m
[Ns]
+8.3 +7.2 93 +3 +3 1011.0 984.3
Ю 9
{11}
16 км 10/10 270 м +9.4 +7.8 90 +5 +5 983.7
Ю 8
{11}
16 км слабый дождь 10/10 270 m
[Ns]
+9.4 +7.8 90 +5 +5 983.3
Ю 9
{11}
16 км 10/10 300 м +9.0 +8.0 93 +4 +4 983.0
Ю 9
{11}
16 км 10/10 300 м +9.4 +7.8 90 +5 +5 1009.8 983.0 2.5
Ю 8
{14}
16 км 10/10 240 м +9.4 +7.8 90 +5 +5 983.0
Ю 10
{12}
16 км 10/10 270 м +10.6 +8.9 89 +6 +6 1008.1 981.7
Ю 8
{11}
16 км 10/10 360 м +11.7 +9.4 86 +8 +8 1007.0 980.4
Ю 8
{12}
16 км 10/8 570 m
[Ac]
+12.2 +9.4 83 +9 +9 1005.5 979.1 +7.8 +12.2 2.8
Ю 9
{13}
16 км 10/8 570 m
[Ac]
+12.8 +10.0 83 +10 +10 979.1
З 4 6 км слабый дождь, дымка 10/10 420 m
[Ns]
+12.2 +10.0 86 +10 +10 1007.1 980.7
СЗ 8 5 км слабый дождь, дымка 10/10 360 m
[Ns]
+12.2 +10.6 90 +9 +9 981.4
З 6
{9}
4 км дождь, дымка 10/10 360 m
[Ns]
+11.1 +9.4 89 +8 +8 981.4
З 5 5 км слабый дождь, дымка 10/10 240 m
[Ns]
+11.1 +9.4 89 +8 +8 981.7
СЗ 7 16 км 10/8 390 m
[Ac]
+11.1 +7.8 80 +8 +8 982.4
СЗ 7 16 км 10/8 870 m
[Ac]
+11.1 +6.7 74 +8 +8 982.4
З 8
{13}
16 км 10/2 1170 m
[Ac]
+11.1 +3.9 61 +8 +8 1009.5 983.0
З 9
{12}
16 км 5/0 3000 m
[Ac]
+11.1 -1.1 43 +8 +8 1011.1 984.3 1.3
З 8
{14}
16 км ясно +8.3 -5.0 39 +4 +4 1013.7 987.0
З 5 16 км ясно +6.7 -6.1 40 +3 +3 1014.9 988.0
З 10 16 км ясно +6.1 -5.6 43 +1 +1 1015.7 989.0 +6.1 +12.8 1.3
З 13
{16}
16 км ясно +5.6 -7.2 39 -1 -1 1016.4 989.6
З 10 16 км ясно +3.9 -7.8 42 -2 -2 1017.7 990.9
З 11 16 км ясно +3.3 -8.9 40 -3 -3 1018.2 991.3
З 8 16 км ясно +2.8 -8.3 44 -3 -3 1018.8 991.9
З 7
{10}
16 км ясно +2.2 -8.3 46 -3 -3 1019.2 992.3
З 6 16 км 8/8 1650 м +2.2 -8.3 46 -3 -3 1019.4 992.6 +1.7 +6.1
З 10
{13}
16 км 8/8 1500 м +2.2 -8.3 46 -5 -5 1020.6 993.6
З 11
{17}
16 км ясно +1.7 -9.4 43 -5 -5 1021.6 994.6
З 10 16 км ясно +0.6 -9.4 47 -7 -7 1022.5 995.6
З 11
{16}
16 км ясно +0.6 -9.4 47 -7 -7 1023.0 995.9
З 4
{9}
16 км 2/2 1410 м 0.0 -9.4 49 -5 -5 1025.4 997.9
З 5
{9}
16 км 8/8 1410 м 0.0 -9.4 49 -5 -5 1026.8 999.2 -0.6 +2.2 4.1
З 9
{11}
16 км 5/5 1350 м 0.0 -9.4 49 -7 -7 1028.1 1000.5
СЗ 7
{11}
16 км 5/5 1500 м +0.6 -8.9 49 -6 -6 1029.6 1001.8
СЗ 7 16 км 2/2 1500 м +1.7 -8.3 47 -4 -4 1030.1 1002.5
СЗ 6 16 км ясно +2.8 -8.3 44 -2 -1 1031.1 1003.5
З 7 16 км ясно +3.3 -8.9 40 -2 -1 1030.9 1003.5
З 9 16 км ясно +4.4 -9.4 36 -1 -1 1030.9 1003.5 -0.6 +4.4
Местоположение метеостанции Washington County Regional Airport: широта 39.7058 долгота -77.7300 высота над уровнем моря 214 м.
В архиве по умолчанию представлена погода в Хейгерстауне за последние 1-2 суток. Обновление информации о фактической погоде в базе происходит ежечасно! Архивные данные за месяц целиком и за предыдущие месяцы Вы можете получить, выбрав интересующий диапазон дат из раскрывающегося списка и нажав кнопку "Ввод!".
Внимание! Архив погоды МЕТАР в базе сайта по станциям, не включенным в климатический монитор, хранится не более 60 дней. Нет смысла пытаться выбрать более раннюю дату.
*Определитесь, кто Вы:
Внимание! Время в таблицах - местное (без учета летнего времени). Для получения всемирного времени необходимо вычесть поправку, которая равна -5 ч.
Смотрите также архив погоды в соседних городах и на ближайших метеорологических станциях:
Партнеры нашего сайта:      
Пояснения к столбцам:
  • Ветер - указаны скорость ветра в м/с - средняя за 10 мин, порывы в срок и между сроками (в фигурных скобках) и направление, откуда дует ветер: С - северный,
  • СВ - северо-восточный, В - восточный, ЮВ - юго-восточный, Ю - южный, ЮЗ - юго-западный, З - западный, СЗ - северо-западный.
  • Видимость - горизонтальная дальность видимости в метрах или километрах. При видимости от 1 до 10 км при отсутствии осадков обычно наблюдается дымка, при ухудшении видимости до 1 км и менее - туман. В сухую погоду видимость может ухудшаться дымом, пылью или мглою.
  • Явления - указаны атмосферные явления, наблюдавшиеся в срок или в последний час перед сроком; фигурными скобками обозначены явления, наблюдавшиеся между сроками (за 1-3 часа до срока); квадратными скобками обозначены град или гололедные отложения с указанием их диаметра в мм.
  • Облачность - указаны через наклонную черту общая и нижняя облачность в баллах и высота нижней границы облаков в метрах; квадратными скобками обозначены формы облаков: Ci - перистые, Cs - перисто-слоистые, Cc - перисто-кучевые, Ac - высококучевые, As - высокослоистые, Sc - слоисто-кучевые, Ns - слоисто-дождевые, Cu - кучевые, Cb - кучево-дождевые. Подробнее классификацию облаков см. в Атласе облаков (PDF).
  • T - Температура воздуха - температура, измеренная на высоте 2 м над землей.
  • Td - Температура точки росы - температура, при понижении до которой содержащийся в воздухе водяной пар достигнет насыщения.
  • f - Относительная влажность воздуха - влажноcть воздуха, измеренная на высоте 2 м над землей.
  • Te - Эффективная температура - температура, которую ощущает одетый по сезону человек в тени. Характеристика душности погоды. При расчете учитывается влияние влажности воздуха и скорости ветра на теплоощущения человека.
  • Tes - Эффективная температура на солнце - температура, которую ощущает человек, с поправкой на солнечный нагрев. Характеристика знойности погоды. Зависит от высоты солнца над горизонтом, облачности и скорости ветра. Ночью, в пасмурную погоду, а также при ветре 12 м/с и более поправка равна нулю.
  • P - Атмосферное давление - приведенное к уровню моря атмосферное давление.
  • Po - Атмосферное давление - измеренное на уровне метеостанции атмосферное давление.
  • Tmin - Минимальная температура - минимум температуры воздуха на высоте 2 м над землей.
  • Tmax - Максимальная температура - максимум температуры воздуха на высоте 2 м над землей.
  • R - Количество осадков - Количество выпавших осадков за период времени, мм. При наведении курсора мыши на число - период времени, за который выпало указанное количество осадков.
  • R24 - Количество осадков - Количество выпавших осадков за 24 часа, мм.
  • S - Снежный покров - Высота снежного покрова, см. При наведении курсора мыши на число - состояние снежного покрова и степень покрытия местности в баллах.